HULIANWANG DIGUI-72 (65232 NORAD) Tracking and Keplerian Element Data

This shows tracking and keplerian element data for the satellite.

Feedback or suggestion? Click here.




ElementValue
Catalog65232
NameHULIANWANG DIGUI-72
Epoch Orbit1662
Epoch Day354.20248756
Epoch Year2025
RAAN73.9378
Inclination86.496
Eccentricity0.0001512
Argument of Perigee110.621
Mean Anonmoly249.5086
Mean Motion13.24414698
Decay Rate4.5E-07
L11 65232U 25178E 25354.20248756 .00000045 00000+0 71244-4 0 9994
L22 65232 86.4960 73.9378 0001512 110.6210 249.5086 13.24414698 16621



Live tracking and technical data element details for HULIANWANG DIGUI-72 (NORAD 65232). HULIANWANG DIGUI-72 can be tracked NOW for your location showing map with azimuth and elevation plus other details from your city location.







IsCatalogInMostPopularTable: catalog: 65232, numindb: 6
Update: records affected: 1



GetName: 65232 HULIANWANG DIGUI-72

Hit Count: updated at: Sat, 11 Apr 2026 21:15:53 GMT